Location: Newark
(50.8922°N, 11.6094°E)
Time: 23:26:45
(UTC+00:00)

ISS - Visible Passes

Search period start: 20 January 2020 00:00
Search period end: 30 January 2020 00:00
Orbit: 415 x 421 km, 51.6° (Epoch: 21 January)

Date Brightness Start Highest point End Pass type
(mag) Time Alt. Az. Time Alt. Az. Time Alt. Az.
21 Jan -1.4 18:12:56 10° SSW 18:14:04 17° SSW 18:14:04 17° SSW visible
22 Jan -2.0 17:25:31 10° S 17:27:59 19° SE 17:28:15 19° SE visible
22 Jan -0.4 19:00:59 10° WSW 19:01:12 11° WSW 19:01:12 11° WSW visible
23 Jan -1.4 16:38:32 10° SSE 16:40:10 13° SE 16:41:48 10° ESE visible
23 Jan -2.4 18:13:04 10° SW 18:15:19 35° SSW 18:15:19 35° SSW visible
24 Jan -2.9 17:25:16 10° SW 17:28:24 37° SSE 17:29:22 30° ESE visible
24 Jan -0.6 19:01:39 10° W 19:02:18 15° W 19:02:18 15° W visible
25 Jan -2.3 16:37:36 10° SSW 16:40:28 26° SSE 16:43:21 10° E visible
25 Jan -3.1 18:13:36 10° WSW 18:16:17 53° WSW 18:16:17 53° WSW visible
26 Jan -3.7 17:25:35 10° WSW 17:28:56 66° SSE 17:30:14 33° E visible
26 Jan -0.7 19:02:21 10° W 19:03:10 16° W 19:03:10 16° W visible
27 Jan -3.2 16:37:39 10° SW 16:40:55 50° SSE 16:44:09 10° E visible
27 Jan -3.2 18:14:15 10° W 18:17:04 58° WNW 18:17:04 58° WNW visible
28 Jan -3.8 17:26:09 10° W 17:29:32 85° N 17:30:58 32° ENE visible
28 Jan -0.8 19:03:01 10° W 19:03:53 17° W 19:03:53 17° W visible
29 Jan -3.7 16:38:03 10° WSW 16:41:26 82° SSE 16:44:49 10° ENE visible
29 Jan -3.3 18:14:54 10° W 18:17:46 60° WNW 18:17:46 60° WNW visible
